OneWeb SL0509

operational
NORAD ID: 54127 Int'l Des: 2022-138 Owner: ONEWEBN Country: UK Constellation: oneweb
LEOCIRCULARPOLARONEWEB_TYPE

Über OneWeb SL0509

Beschreibung wird geladen...

Live-Position

3D-Globus wird geladen...

Nächste Überflüge

Höhenverlauf

Altitude vs Time

uPlot chart will show altitude changes over time

Zweizeiliger Elementsatz

1 54127U 22138Q 25260.83384153 -.00000003 00000-0 -39498-4 0 9997
2 54127 87.9291 359.1014 0001722 99.7900 260.3427 13.19725431140887
Epoch: 17. Sept. 2025 • Age: 15 hours

Aktueller Status

Höhe 1197.0 km
Geschwindigkeit 7.26 km/s
Subsatellitenpunkt 71.07°N, 156.54°W
Startdatum 22. Okt. 2022
Alter 2.9 years
Typ internet

Technische Details

Klassifizierung Payload
Masse 148.00 kg
Trockenmasse 140.00 kg
Gesamtmasse 148.00 kg
Länge 1.30 m
Durchmesser 1.00 m
Spannweite 5.00 m
Form Trapezoid+2 pan
Hersteller ONEWUS
Bus-Typ ARROW
Phasenstatus In Orbit
Besitzer/Staat ONEWEBN/UK

Große Konstellationen

Loading constellations...